[[{"header":{"parameterUnit":"m.s-1","parameterCategory":1,"la1":30.2992,"la2":30.254,"lo1":-89.0895,"lo2":-89.0443,"dy":0.0025,"dx":0.0025,"nx":19,"ny":19,"refTime":"2026-04-09T03:00:00:Z","depth":0,"parameterNumber":2,"parameterNumberName":"U-component_of_WINDS"},"data":[0,0,0,-7.3373,-7.3376,-7.3497,-7.3497,-7.3693,-7.3695,0,0,0,0,0,0,0,0,0,0,0,-7.3362,-7.3364,-7.3373,-7.3376,-7.3497,-7.3497,-7.3692,-7.3695,0,0,0,0,0,0,0,0,0,0,0,-7.3361,-7.3363,-7.3366,-7.3377,-7.3497,-7.3497,-7.3692,-7.3586,0,0,0,0,0,0,0,0,0,0,-7.3462,-7.3475,-7.3363,-7.3366,-7.3378,-7.3497,-7.3497,-7.358,-7.3593,-7.3656,0,-7.3717,0,-7.371,-7.371,-7.3711,0,0,0,-7.3358,-7.3465,-7.3476,-7.3366,-7.3379,-7.3497,-7.3437,-7.3587,-7.3601,-7.3672,-7.372,-7.3726,-7.3713,-7.3712,-7.3713,-7.4136,-7.4139,0,0,-7.3352,-7.3397,-7.3466,-7.3486,-7.3469,-7.3434,-7.3441,-7.3595,-7.365,-7.372,-7.373,-7.3716,-7.3714,-7.3715,-7.4133,-7.4137,0,0,0,-7.3345,-7.3393,-7.3398,-7.3479,-7.3498,-7.3438,-7.3446,-7.3643,-7.3641,-7.3732,-7.3718,-7.3715,-7.3718,-7.413,-7.4135,-7.4319,0,0,0,-7.334,-7.3389,-7.3396,-7.3425,-7.3496,-7.3572,-7.3492,-7.363,-7.3646,-7.3717,-7.3715,-7.372,-7.4127,-7.4132,-7.4308,-7.44,0,0,0,-7.3346,-7.3389,-7.3415,-7.3428,-7.3481,-7.3568,-7.3574,-7.3632,-7.3639,-7.3711,-7.3721,-7.4125,-7.4131,-7.4297,-7.4382,-7.4526,0,0,0,-7.3365,-7.3576,-7.3419,-7.365,-7.348,-7.3681,-7.3573,-7.372,-7.3804,-7.3716,-7.4127,-7.4134,-7.4294,-7.4371,-7.4515,-7.4656,-7.4719,0,0,-7.3657,-7.3613,-7.3746,-7.3608,-7.3849,-7.3659,-7.3927,-7.3961,-7.3926,-7.4068,-7.4078,-7.4311,-7.4381,-7.4524,-7.5051,-7.5101,0,0,0,-7.3854,-7.395,-7.4004,-7.4086,-7.4117,-7.4152,-7.414,-7.4153,-7.4272,-7.4008,-7.44,-7.444,-7.4522,-7.4587,-7.463,-7.4698,-7.4166,-7.4165,-7.4164,-7.4333,-7.4278,-7.4494,-7.4455,-7.4536,-7.4522,-7.4584,-7.4599,-7.4518,-7.4612,-7.4655,-7.4981,-7.506,-7.5091,-7.5163,-7.4723,-7.4724,-7.4724,-7.4725,-7.4758,-7.4887,-7.4776,-7.4946,-7.4887,-7.503,-7.5026,-7.4965,-7.509,-7.4944,-7.5013,-7.4861,-7.5148,-7.5208,-7.4738,-7.4736,-7.4734,-7.4733,-7.4732,-7.5068,-7.512,-7.5132,-7.5246,-7.5341,-7.5292,-7.5419,-7.5359,-7.5304,-7.5373,-7.5413,-7.541,-7.5401,-7.5396,-7.5397,-7.5398,-7.5399,-7.54,-7.5401,-7.5385,-7.5392,-7.5505,-7.5558,-7.5604,-7.5657,-7.5646,-7.569,-7.5724,-7.5671,-7.5671,-7.5584,-7.5186,-7.5088,-7.5418,-7.5415,-7.5413,-7.5411,-7.541,-7.5839,-7.5727,-7.5903,-7.5949,-7.6006,-7.6106,-7.6028,-7.6123,-7.6151,-7.6216,-7.6113,-7.5828,-7.5779,-7.5745,-7.5664,-7.6123,-7.6123,-7.6123,-7.6123,-7.6102,-7.6071,-7.6238,-7.6317,-7.6386,-7.6335,-7.6537,-7.6531,-7.6508,-7.6522,-7.6447,-7.6334,-7.6301,-7.6272,-7.6226,-7.615,-7.6722,-7.6723,-7.6723,-7.638,-7.6353,-7.6536,-7.6511,-7.6552,-7.6589,-7.6778,-7.6873,-7.6823,-7.6746,-7.6533,-7.6507,-7.6324,-7.6267,-7.6187,-7.6117,-7.5975,0,0]},{"header":{"parameterUnit":"m.s-1","parameterCategory":1,"la1":30.2992,"la2":30.254,"lo1":-89.0895,"lo2":-89.0443,"dy":0.0025,"dx":0.0025,"nx":19,"ny":19,"refTime":"2026-04-09T03:00:00:Z","depth":0,"parameterNumber":3,"parameterNumberName":"V-component_of_WINDS"},"data":[0,0,0,-0.8946,-0.8947,-0.9011,-0.9011,-0.9095,-0.9096,0,0,0,0,0,0,0,0,0,0,0,-0.8928,-0.8929,-0.8946,-0.8947,-0.9011,-0.9011,-0.9095,-0.9096,0,0,0,0,0,0,0,0,0,0,0,-0.8928,-0.8929,-0.893,-0.8947,-0.901,-0.9011,-0.9095,-0.9046,0,0,0,0,0,0,0,0,0,0,-0.8984,-0.897,-0.8929,-0.893,-0.8948,-0.901,-0.9011,-0.9044,-0.9049,-0.9068,0,-0.9084,0,-0.9091,-0.9102,-0.9102,0,0,0,-0.8946,-0.8965,-0.898,-0.893,-0.8948,-0.901,-0.8982,-0.9047,-0.9053,-0.9075,-0.9085,-0.9088,-0.9093,-0.9102,-0.9103,-0.9211,-0.9211,0,0,-0.8943,-0.8941,-0.8976,-0.8984,-0.8974,-0.898,-0.8984,-0.905,-0.9062,-0.9086,-0.909,-0.9094,-0.9103,-0.9104,-0.921,-0.9211,0,0,0,-0.8933,-0.8939,-0.8952,-0.8981,-0.8992,-0.8981,-0.8986,-0.9059,-0.9064,-0.9091,-0.9095,-0.9103,-0.9104,-0.921,-0.921,-0.9235,0,0,0,-0.8931,-0.8933,-0.8951,-0.8951,-0.8991,-0.9026,-0.8993,-0.9059,-0.9066,-0.9095,-0.9103,-0.9105,-0.9209,-0.921,-0.9233,-0.9248,0,0,0,-0.8924,-0.8932,-0.8942,-0.895,-0.8977,-0.9025,-0.9034,-0.9061,-0.9069,-0.9102,-0.9106,-0.9209,-0.921,-0.9232,-0.9245,-0.9276,0,0,0,-0.8916,-0.8964,-0.8942,-0.8998,-0.8977,-0.904,-0.9033,-0.9081,-0.9112,-0.9104,-0.9209,-0.921,-0.9231,-0.9243,-0.9274,-0.9301,-0.9313,0,0,-0.8976,-0.8972,-0.9004,-0.8986,-0.9052,-0.903,-0.91,-0.9131,-0.9137,-0.9186,-0.9188,-0.9234,-0.9245,-0.9275,-0.9375,-0.9383,0,0,0,-0.9023,-0.9046,-0.9064,-0.9093,-0.9117,-0.9138,-0.9158,-0.917,-0.9211,-0.9161,-0.9253,-0.926,-0.9278,-0.9291,-0.9298,-0.9314,-0.9216,-0.9216,-0.9216,-0.9107,-0.9109,-0.9163,-0.9173,-0.9201,-0.922,-0.9243,-0.9262,-0.9257,-0.9279,-0.9294,-0.9354,-0.9369,-0.9375,-0.9391,-0.9308,-0.9308,-0.9308,-0.9308,-0.9196,-0.923,-0.922,-0.9269,-0.9271,-0.9313,-0.9332,-0.9327,-0.9366,-0.9343,-0.9359,-0.9334,-0.9384,-0.9398,-0.931,-0.931,-0.9309,-0.9309,-0.9309,-0.9252,-0.9269,-0.928,-0.9321,-0.9352,-0.936,-0.9397,-0.9398,-0.9399,-0.9414,-0.943,-0.943,-0.943,-0.9422,-0.9422,-0.9422,-0.9422,-0.9422,-0.9422,-0.9306,-0.9318,-0.9349,-0.9376,-0.9394,-0.9418,-0.9435,-0.9453,-0.9473,-0.9471,-0.9471,-0.9464,-0.9388,-0.9369,-0.9426,-0.9425,-0.9425,-0.9424,-0.9424,-0.9397,-0.9376,-0.9424,-0.9441,-0.9472,-0.9503,-0.9502,-0.9538,-0.9553,-0.9571,-0.956,-0.9503,-0.9499,-0.9493,-0.9478,-0.9559,-0.9559,-0.9559,-0.9559,-0.9445,-0.9442,-0.949,-0.9518,-0.9545,-0.9548,-0.9602,-0.9615,-0.9627,-0.9636,-0.9624,-0.9603,-0.9597,-0.9596,-0.9588,-0.9574,-0.9677,-0.9678,-0.9678,-0.9501,-0.95,-0.9546,-0.9555,-0.9578,-0.9599,-0.9649,-0.9682,-0.969,-0.9682,-0.9643,-0.9638,-0.9604,-0.9593,-0.9587,-0.9574,-0.9548,0,0]}]]